Vorticity
10 6 9 9 7 9 10 11 10 4 2 4 6 6 4 5 7 8 9 8 6 6 5 5 4 4 4 4 4 5 5 5 5 5 5 5 6 7 7 8 9 10 10 10 10 9 10 11 11 10 9 9 10 10 10 9 9 9 9 9 9 9 9
10 6 8 10 9 7 5 6 7 3 -1 3 8 8 4 5 6 7 8 8 7 5 5 6 4 4 5 5 4 4 5 5 5 4 4 5 5 6 6 7 8 10 10 9 9 10 11 11 12 12 13 12 12 12 11 10 11 10 10 10 10 10 11
7 4 4 7 10 8 2 5 12 9 2 4 9 9 5 5 6 6 7 7 8 7 5 4 4 4 4 4 4 3 4 5 5 5 4 4 5 5 5 7 9 10 9 9 9 9 11 11 11 13 14 11 11 12 11 11 11 10 10 9 9 10 9
9 5 3 4 7 8 7 13 16 10 7 9 10 9 7 6 6 6 6 7 8 7 6 5 4 5 4 3 4 4 4 4 4 5 4 4 3 3 5 6 7 9 9 8 8 8 9 9 9 10 10 9 9 10 9 8 8 7 7 6 5 6 5
13 8 5 3 5 8 9 10 7 6 10 10 8 9 9 6 6 6 4 6 7 6 7 6 5 6 6 5 5 5 4 4 4 4 4 4 3 2 4 5 6 8 9 9 8 7 6 6 7 7 6 6 6 6 5 4 4 4 4 5 5 5 4
17 12 7 6 5 5 8 6 4 10 18 15 8 9 9 3 3 7 5 5 7 6 5 7 6 5 5 6 5 5 4 3 3 4 4 3 3 3 3 3 5 7 8 9 8 7 6 4 5 5 4 4 2 1 1 1 3 5 5 6 7 7 8
20 16 9 7 7 6 6 6 6 10 19 22 13 8 9 2 -3 4 9 6 6 8 9 8 8 6 5 6 5 5 6 4 4 4 4 4 3 3 3 3 4 5 7 9 9 9 9 5 5 5 4 4 3 2 2 3 4 5 5 7 7 8 9
18 21 13 6 7 9 6 4 6 7 14 25 19 8 9 7 -2 0 7 8 4 5 9 9 7 8 7 6 6 5 4 4 4 4 4 4 4 3 3 3 3 4 5 6 8 8 8 7 7 6 5 5 4 4 3 4 5 5 5 7 8 8 8
8 17 19 12 9 11 7 4 7 5 12 30 28 14 11 9 4 1 2 7 7 4 6 8 6 5 5 6 7 6 6 5 4 5 4 4 4 3 4 3 3 3 3 5 7 7 7 8 7 6 6 6 5 4 3 2 3 4 5 7 7 7 8
5 8 14 16 14 14 9 6 9 5 10 25 23 16 17 11 5 6 2 4 8 6 6 9 9 7 5 6 6 5 6 6 4 5 5 4 4 3 3 3 3 3 3 4 5 6 7 7 6 6 6 6 6 6 5 5 5 5 5 6 6 6 8
9 9 10 12 15 18 12 9 11 6 7 15 12 13 24 19 10 11 6 2 7 9 7 8 7 7 6 7 8 6 5 6 6 5 4 3 4 4 3 4 4 3 3 4 4 6 7 6 6 6 5 6 8 6 4 6 8 6 6 6 6 7 8
8 10 13 14 14 17 15 11 12 8 6 13 14 14 23 24 17 13 7 3 7 7 7 10 6 4 7 7 7 7 5 5 6 7 8 6 3 4 4 4 4 5 4 4 4 4 5 6 7 6 5 6 7 4 3 5 5 5 7 6 5 6 5
4 1 6 15 17 18 16 11 11 11 7 10 14 14 21 30 25 14 8 8 7 2 3 9 8 4 7 8 8 10 10 7 4 4 8 10 7 5 5 5 6 6 5 5 5 4 4 5 6 6 6 6 7 4 1 2 3 5 6 5 4 4 4
9 -0 -5 2 13 19 19 12 9 11 10 9 11 9 18 33 30 16 11 6 1 -1 -1 3 8 6 5 8 9 7 7 8 7 4 4 8 9 8 7 6 5 5 5 5 5 5 6 6 5 6 6 7 8 6 0 1 6 7 7 7 5 4 4
14 10 2 -2 3 12 19 16 9 8 10 10 10 10 16 31 30 14 10 8 -1 -1 1 1 7 7 3 7 9 4 3 7 8 6 4 5 7 9 9 7 5 5 5 6 6 6 7 7 6 6 6 6 7 6 3 2 5 6 6 6 5 5 4
13 13 12 6 2 4 12 16 11 10 11 8 10 12 15 33 39 15 -0 6 6 4 4 5 8 8 2 4 9 6 4 6 7 7 8 6 5 6 8 8 6 6 6 6 7 7 7 7 6 6 7 6 6 6 5 5 5 6 7 6 6 6 5
15 12 13 12 9 4 5 11 12 11 13 12 13 12 7 26 50 35 2 -4 5 10 10 8 9 9 4 3 7 7 6 5 5 5 8 9 8 6 7 7 6 7 7 6 6 6 7 7 6 7 8 7 6 6 6 6 5 5 6 5 6 7 6
20 14 12 13 14 9 4 6 10 9 12 14 15 15 6 5 26 38 23 8 7 9 9 7 7 7 6 6 5 7 8 6 5 7 7 7 7 5 5 7 8 9 9 7 7 6 7 6 6 7 6 3 3 5 5 6 6 5 6 6 6 7 8
23 18 13 11 14 14 7 4 7 10 12 13 13 15 12 3 4 18 25 23 20 15 10 12 12 6 4 6 8 11 12 5 4 10 9 2 2 5 6 8 11 12 10 8 7 6 6 5 5 6 5 2 3 4 4 4 5 4 5 6 6 6 6
21 20 15 12 13 15 11 4 4 8 11 13 15 15 14 13 9 8 9 11 14 12 10 13 17 15 10 6 3 7 11 6 4 10 10 4 3 7 8 9 9 7 5 7 8 8 7 5 4 4 5 5 6 7 6 5 5 5 6 7 6 5 5
16 19 17 15 13 14 14 7 -0 1 5 9 15 18 16 14 14 13 11 7 5 4 2 2 5 11 15 13 8 4 3 5 7 10 10 8 8 8 9 10 7 3 6 11 9 6 6 5 4 5 6 6 6 6 5 5 6 7 8 7 6 5 5
13 17 19 17 14 14 16 11 1 -1 2 4 8 15 17 15 14 13 12 13 14 13 13 15 15 9 8 15 20 13 2 0 8 12 8 6 8 10 11 10 6 2 7 12 8 6 7 6 4 5 6 4 2 3 4 6 8 9 10 10 10 9 9
13 15 19 18 15 16 17 15 8 2 1 4 6 10 13 13 14 13 8 10 18 19 15 17 24 27 24 19 19 23 17 6 5 10 7 5 10 13 13 14 13 9 8 7 5 4 2 -1 -1 5 7 4 3 5 8 10 9 8 9 10 11 11 11
16 15 19 19 17 17 19 18 13 8 7 8 8 10 14 15 16 18 14 10 13 18 15 8 10 26 36 24 16 31 38 24 13 12 7 3 3 0 -3 0 5 4 0 -2 0 1 -1 -2 1 6 8 7 6 7 8 8 7 6 6 8 8 6 4
17 12 16 20 17 18 21 21 17 13 11 12 13 14 15 15 12 11 12 8 4 10 20 21 18 26 32 19 6 12 21 26 32 30 16 5 -1 -8 -9 -4 -2 -3 -6 -6 -1 4 5 6 7 5 4 5 7 9 10 8 7 6 6 8 8 5 4
18 10 13 19 17 16 21 22 18 14 12 12 15 15 15 17 15 12 17 21 17 15 14 9 8 18 28 24 15 11 16 28 35 28 17 14 9 3 5 7 2 -1 -0 2 7 9 6 2 0 2 3 2 3 7 9 8 7 9 10 10 11 13 13
19 11 10 18 18 15 18 21 18 17 18 18 18 16 16 19 16 10 13 17 19 24 24 12 5 13 21 18 10 4 5 12 16 16 21 27 23 14 11 11 10 10 12 12 11 10 7 3 1 4 7 7 7 7 7 7 9 10 9 7 8 13 15
19 16 12 17 20 15 13 16 15 12 14 15 16 17 17 17 12 7 7 7 6 14 24 27 27 27 25 24 20 13 11 15 17 20 27 31 26 18 14 13 13 14 14 14 14 12 13 16 16 16 15 12 9 6 5 8 11 9 9 11 14 15 12
19 21 12 10 14 13 11 12 11 7 6 6 6 9 12 13 13 11 8 9 10 10 9 12 15 16 21 32 36 31 31 35 29 19 18 21 18 16 18 18 17 18 17 16 17 17 16 16 15 13 12 9 7 7 10 14 14 16 21 21 19 18 16
19 23 13 5 7 9 10 12 9 6 7 6 5 7 10 11 13 13 11 11 14 16 13 9 8 8 10 18 22 21 23 34 39 30 22 19 13 11 17 20 21 28 31 23 16 16 19 19 16 12 12 13 13 16 18 15 11 17 23 24 21 20 21
20 24 15 8 8 10 10 9 8 8 11 11 10 10 10 10 10 10 12 12 12 15 19 18 18 18 10 3 9 13 5 5 22 31 26 23 22 21 23 22 16 17 22 22 17 15 19 24 25 21 19 17 13 11 10 9 10 11 7 9 18 18 8
20 24 16 9 11 14 12 8 7 11 12 12 13 12 9 10 12 10 11 14 13 13 16 15 16 22 19 9 11 14 2 -7 5 17 15 13 14 12 13 17 12 5 5 8 9 8 8 12 16 17 17 18 16 11 7 8 14 11 -6 -14 -1 8 3
18 22 16 11 10 9 10 11 10 10 9 8 11 14 11 8 9 10 10 12 11 10 11 11 10 13 16 14 13 15 13 9 11 13 12 10 9 6 6 10 11 8 7 7 9 10 10 10 11 11 10 11 13 12 9 9 12 12 3 -4 -0 7 8
13 13 11 19 22 9 5 14 15 10 10 10 12 15 13 8 6 6 6 6 7 7 6 7 10 10 10 11 10 9 11 12 11 12 14 13 12 12 11 11 12 12 12 10 10 11 11 11 12 11 9 9 9 9 9 10 9 8 8 7 5 5 6
12 6 3 20 33 19 6 12 15 10 9 10 10 10 8 5 3 2 1 2 4 5 4 3 5 6 6 7 7 6 6 7 7 8 9 9 8 8 9 10 12 12 12 12 12 11 10 9 9 8 8 8 9 8 9 10 10 9 9 10 9 8 7
12 9 3 11 24 23 14 12 11 10 9 7 6 5 3 2 2 1 1 2 1 1 3 4 4 5 5 5 5 5 4 4 4 5 5 6 7 7 7 8 10 11 12 13 13 12 12 12 11 11 11 11 10 11 10 10 10 10 10 11 12 12 11
10 13 11 7 8 13 17 15 8 7 10 9 5 3 2 2 2 1 1 3 2 -0 1 3 4 5 6 6 6 6 5 5 4 5 5 5 5 6 7 8 9 9 10 10 10 11 12 12 12 12 13 13 12 12 13 12 12 12 12 12 12 12 12
10 12 16 16 10 7 14 20 14 8 6 4 2 4 4 3 3 3 2 1 2 2 2 3 4 6 6 7 7 7 8 8 8 6 6 7 9 10 11 11 11 11 11 11 11 11 11 11 12 12 12 12 12 12 12 12 12 12 12 12 12 11 11
Height
5864 5866 5868 5869 5871 5872 5872 5873 5873 5874 5876 5878 5880 5881 5883 5885 5886 5887 5888 5890 5891 5892 5893 5894 5894 5895 5896 5897 5898 5898 5899 5900 5900 5901 5901 5902 5902 5902 5903 5903 5904 5905 5906 5907 5907 5908 5909 5909 5910 5910 5911 5911 5912 5912 5912 5913 5913 5913 5913 5914 5914 5914 5914
5863 5864 5865 5867 5868 5869 5870 5871 5872 5872 5873 5875 5877 5879 5880 5883 5884 5885 5886 5888 5890 5891 5892 5893 5894 5894 5895 5896 5897 5898 5898 5899 5899 5900 5900 5901 5901 5902 5902 5903 5904 5905 5905 5906 5907 5907 5908 5909 5910 5910 5911 5911 5911 5912 5912 5912 5913 5913 5913 5914 5914 5914 5914
5861 5862 5864 5865 5865 5866 5868 5869 5870 5872 5872 5872 5873 5875 5877 5880 5881 5883 5884 5886 5888 5889 5891 5892 5893 5894 5895 5895 5896 5896 5897 5898 5898 5899 5899 5900 5900 5901 5902 5903 5904 5904 5905 5905 5906 5907 5908 5909 5909 5910 5910 5911 5911 5911 5912 5912 5912 5913 5913 5913 5914 5914 5914
5860 5861 5862 5863 5863 5863 5864 5865 5867 5869 5871 5872 5871 5871 5873 5876 5878 5880 5882 5884 5886 5887 5889 5890 5892 5893 5894 5894 5895 5895 5896 5897 5897 5898 5898 5899 5900 5901 5901 5902 5903 5904 5904 5905 5906 5907 5907 5908 5909 5909 5910 5910 5911 5911 5912 5912 5912 5913 5913 5913 5914 5914 5914
5859 5859 5859 5860 5861 5862 5862 5864 5865 5865 5867 5870 5870 5870 5872 5874 5876 5877 5879 5882 5884 5885 5887 5888 5890 5891 5892 5893 5894 5894 5895 5895 5896 5897 5898 5898 5899 5900 5901 5901 5902 5903 5904 5904 5905 5906 5907 5907 5908 5909 5909 5910 5910 5911 5911 5912 5912 5913 5913 5913 5913 5914 5914
5856 5857 5857 5858 5859 5860 5861 5862 5863 5863 5864 5867 5869 5871 5872 5871 5873 5875 5877 5879 5881 5883 5885 5887 5888 5889 5891 5892 5893 5894 5894 5895 5895 5896 5897 5897 5898 5899 5900 5900 5901 5902 5903 5904 5904 5905 5906 5907 5907 5908 5909 5909 5910 5911 5911 5911 5912 5912 5913 5913 5913 5913 5913
5853 5854 5855 5855 5857 5858 5859 5860 5861 5861 5862 5864 5866 5868 5870 5870 5870 5873 5875 5876 5879 5881 5883 5885 5886 5888 5889 5891 5892 5893 5893 5894 5894 5895 5896 5897 5897 5898 5898 5899 5900 5901 5902 5903 5903 5904 5905 5906 5906 5907 5908 5908 5909 5910 5910 5910 5911 5911 5912 5912 5912 5913 5913
5851 5851 5852 5853 5854 5855 5856 5857 5858 5858 5859 5861 5863 5864 5866 5868 5868 5869 5873 5874 5876 5878 5880 5881 5883 5886 5887 5889 5890 5891 5892 5893 5893 5894 5895 5896 5897 5897 5897 5898 5899 5899 5900 5901 5902 5903 5903 5904 5905 5906 5906 5907 5907 5908 5909 5909 5909 5910 5910 5911 5911 5912 5912
5849 5849 5850 5850 5851 5853 5853 5854 5855 5856 5856 5858 5860 5861 5862 5865 5865 5866 5869 5872 5872 5873 5876 5878 5881 5882 5884 5886 5887 5889 5890 5891 5892 5893 5894 5895 5895 5896 5896 5897 5897 5898 5899 5899 5900 5901 5901 5902 5903 5903 5904 5905 5906 5906 5907 5907 5908 5909 5909 5909 5910 5910 5910
5846 5846 5847 5848 5849 5851 5851 5851 5852 5853 5854 5855 5858 5859 5859 5862 5863 5864 5865 5868 5870 5871 5873 5875 5877 5879 5881 5883 5884 5886 5888 5889 5891 5892 5892 5893 5894 5894 5895 5895 5896 5897 5897 5898 5898 5899 5900 5900 5901 5901 5902 5903 5904 5905 5905 5906 5907 5907 5907 5908 5908 5909 5909
5843 5843 5844 5845 5847 5848 5849 5849 5849 5850 5851 5852 5854 5856 5856 5858 5861 5862 5863 5864 5866 5868 5869 5871 5873 5876 5878 5881 5882 5883 5885 5886 5888 5890 5890 5891 5892 5893 5893 5894 5895 5896 5896 5897 5897 5898 5899 5899 5899 5900 5901 5901 5902 5903 5904 5905 5905 5906 5907 5907 5907 5908 5908
5841 5841 5841 5842 5843 5845 5846 5847 5847 5847 5848 5849 5851 5852 5853 5854 5856 5859 5861 5862 5864 5867 5867 5867 5869 5873 5875 5877 5879 5880 5881 5882 5884 5887 5888 5889 5890 5891 5892 5893 5894 5894 5895 5896 5896 5897 5897 5898 5899 5899 5899 5900 5900 5901 5902 5903 5903 5905 5906 5906 5906 5906 5906
5838 5838 5838 5839 5840 5842 5843 5844 5845 5845 5845 5846 5847 5848 5849 5851 5853 5856 5858 5861 5863 5865 5865 5865 5867 5870 5872 5874 5875 5877 5879 5880 5881 5882 5884 5886 5887 5888 5889 5890 5891 5892 5893 5894 5895 5895 5896 5896 5896 5897 5897 5898 5898 5899 5900 5901 5902 5904 5904 5904 5904 5904 5904
5835 5835 5835 5836 5837 5838 5839 5840 5841 5842 5843 5844 5845 5846 5847 5848 5850 5852 5854 5857 5859 5861 5863 5864 5866 5867 5869 5870 5872 5874 5876 5878 5879 5879 5880 5882 5884 5885 5887 5887 5888 5889 5890 5892 5892 5893 5893 5893 5894 5894 5895 5896 5896 5897 5898 5899 5900 5902 5902 5902 5902 5902 5902
5832 5832 5832 5833 5834 5835 5836 5836 5837 5838 5840 5841 5842 5843 5844 5845 5847 5849 5851 5853 5855 5857 5860 5862 5864 5865 5866 5867 5869 5871 5873 5874 5875 5877 5878 5878 5880 5883 5884 5885 5886 5887 5888 5889 5890 5891 5891 5891 5892 5893 5893 5894 5894 5895 5896 5897 5898 5900 5901 5900 5900 5900 5900
5829 5829 5829 5829 5831 5832 5833 5833 5834 5835 5836 5837 5839 5841 5842 5842 5843 5846 5849 5850 5852 5854 5857 5859 5861 5862 5863 5864 5865 5867 5868 5870 5872 5874 5875 5877 5878 5880 5881 5883 5883 5884 5885 5886 5887 5888 5888 5889 5890 5891 5891 5892 5893 5894 5894 5895 5896 5897 5898 5899 5899 5898 5898
5826 5826 5826 5826 5827 5828 5830 5830 5831 5832 5833 5834 5836 5838 5839 5840 5840 5843 5846 5848 5850 5852 5854 5856 5857 5859 5860 5860 5861 5862 5863 5866 5868 5870 5872 5874 5875 5876 5878 5879 5880 5881 5881 5882 5883 5884 5886 5886 5887 5888 5889 5890 5891 5892 5892 5893 5893 5894 5895 5896 5896 5897 5896
5822 5823 5823 5823 5823 5824 5826 5827 5828 5829 5831 5831 5833 5834 5836 5837 5839 5841 5843 5845 5847 5849 5850 5851 5853 5854 5855 5856 5858 5860 5861 5863 5864 5866 5868 5870 5872 5873 5874 5876 5877 5878 5879 5879 5880 5881 5883 5884 5884 5885 5886 5887 5888 5889 5890 5890 5890 5891 5892 5893 5893 5894 5893
5819 5819 5819 5820 5820 5821 5822 5824 5825 5826 5828 5829 5830 5831 5833 5834 5837 5839 5841 5842 5844 5845 5846 5847 5848 5848 5850 5852 5855 5857 5858 5859 5860 5862 5864 5866 5868 5869 5870 5872 5873 5875 5876 5877 5878 5879 5880 5881 5881 5882 5883 5884 5885 5886 5887 5887 5887 5888 5889 5890 5890 5890 5890
5815 5815 5816 5816 5817 5818 5819 5820 5821 5822 5824 5825 5827 5828 5830 5832 5834 5836 5838 5839 5840 5842 5843 5844 5844 5845 5847 5850 5852 5854 5855 5856 5857 5858 5860 5863 5864 5864 5865 5867 5869 5870 5873 5874 5874 5875 5877 5878 5879 5879 5880 5881 5882 5883 5883 5883 5884 5885 5885 5886 5886 5887 5887
5812 5812 5812 5813 5814 5815 5816 5816 5818 5819 5820 5822 5823 5825 5827 5829 5831 5833 5835 5836 5837 5838 5839 5840 5840 5842 5844 5846 5847 5849 5851 5853 5854 5855 5857 5860 5860 5859 5861 5863 5865 5866 5868 5869 5869 5871 5873 5875 5876 5877 5877 5878 5878 5878 5878 5879 5880 5881 5881 5882 5882 5882 5883
5809 5810 5809 5810 5811 5812 5813 5814 5815 5816 5817 5819 5820 5821 5823 5826 5828 5830 5831 5833 5834 5834 5835 5835 5836 5838 5839 5840 5843 5845 5847 5849 5851 5852 5854 5855 5856 5857 5858 5860 5861 5863 5865 5866 5867 5868 5869 5871 5873 5873 5874 5875 5875 5875 5875 5876 5877 5877 5877 5877 5877 5878 5878
5807 5807 5807 5807 5808 5809 5810 5811 5812 5813 5814 5815 5817 5819 5821 5822 5824 5826 5827 5828 5829 5830 5830 5830 5831 5832 5833 5834 5838 5841 5841 5843 5846 5849 5849 5851 5852 5854 5855 5856 5858 5859 5861 5862 5864 5865 5867 5868 5869 5870 5871 5873 5873 5873 5873 5873 5873 5873 5873 5873 5873 5874 5875
5804 5804 5804 5805 5806 5807 5807 5808 5809 5810 5811 5813 5815 5817 5818 5820 5821 5822 5822 5823 5824 5825 5825 5825 5826 5827 5828 5829 5833 5836 5838 5840 5843 5845 5846 5847 5848 5849 5850 5852 5854 5855 5857 5859 5861 5862 5863 5865 5866 5867 5869 5870 5870 5870 5870 5869 5869 5869 5869 5869 5870 5870 5871
5802 5802 5802 5803 5803 5804 5805 5806 5806 5807 5809 5810 5812 5814 5815 5816 5817 5818 5817 5819 5821 5822 5823 5822 5822 5823 5824 5826 5830 5833 5835 5837 5839 5841 5842 5843 5844 5845 5846 5848 5851 5853 5855 5856 5857 5858 5859 5860 5861 5863 5864 5866 5866 5865 5865 5866 5865 5865 5865 5865 5866 5866 5867
5800 5800 5800 5800 5801 5802 5802 5803 5804 5805 5806 5808 5810 5811 5812 5813 5814 5815 5815 5816 5819 5820 5821 5820 5820 5821 5821 5824 5827 5830 5832 5833 5835 5837 5839 5840 5841 5843 5844 5846 5847 5849 5850 5852 5853 5854 5855 5856 5857 5858 5859 5861 5861 5861 5862 5862 5861 5861 5861 5861 5862 5862 5862
5799 5799 5799 5798 5799 5799 5800 5801 5802 5803 5804 5806 5808 5809 5810 5812 5812 5813 5814 5815 5816 5817 5818 5819 5819 5820 5820 5821 5824 5826 5828 5830 5832 5834 5836 5837 5839 5840 5842 5843 5844 5845 5846 5847 5849 5850 5851 5851 5852 5853 5855 5856 5856 5857 5858 5857 5857 5857 5857 5858 5858 5858 5858
5797 5797 5797 5797 5797 5797 5798 5799 5800 5801 5803 5805 5806 5808 5809 5810 5810 5811 5812 5814 5814 5815 5817 5817 5817 5817 5819 5821 5822 5823 5825 5827 5828 5830 5832 5833 5835 5837 5838 5840 5841 5842 5843 5844 5845 5846 5847 5847 5848 5849 5850 5851 5852 5853 5853 5853 5853 5853 5853 5854 5854 5854 5854
5795 5796 5795 5795 5796 5796 5797 5798 5799 5800 5802 5803 5805 5806 5807 5808 5809 5810 5811 5811 5812 5814 5815 5816 5815 5815 5818 5820 5820 5820 5821 5822 5823 5825 5827 5829 5831 5833 5835 5837 5838 5839 5840 5841 5842 5842 5843 5843 5844 5845 5846 5847 5848 5849 5849 5849 5850 5850 5849 5850 5850 5850 5850
5794 5794 5794 5794 5794 5795 5796 5796 5797 5799 5800 5802 5803 5805 5806 5806 5807 5808 5809 5809 5810 5812 5813 5814 5814 5814 5817 5819 5819 5818 5819 5819 5820 5822 5823 5825 5828 5830 5832 5833 5834 5835 5836 5837 5838 5838 5839 5839 5840 5841 5842 5843 5844 5845 5845 5845 5846 5846 5846 5845 5845 5846 5846
5792 5793 5793 5793 5793 5794 5794 5795 5796 5797 5799 5800 5801 5803 5804 5805 5806 5807 5808 5808 5809 5811 5812 5813 5814 5815 5816 5816 5816 5816 5817 5817 5818 5820 5822 5823 5825 5827 5828 5830 5831 5832 5832 5833 5834 5835 5835 5836 5836 5837 5838 5839 5840 5841 5841 5841 5842 5842 5842 5842 5840 5840 5840
5790 5791 5791 5792 5792 5793 5793 5793 5794 5796 5797 5799 5800 5801 5802 5803 5804 5805 5806 5808 5809 5811 5812 5814 5814 5814 5814 5814 5814 5814 5816 5816 5816 5818 5820 5821 5823 5824 5825 5827 5828 5829 5830 5831 5832 5833 5833 5833 5834 5834 5835 5835 5836 5837 5837 5836 5837 5838 5838 5838 5836 5835 5835
5788 5789 5790 5791 5791 5792 5792 5793 5794 5795 5796 5798 5799 5801 5801 5802 5804 5804 5805 5807 5808 5809 5810 5811 5812 5812 5813 5813 5813 5814 5815 5815 5815 5817 5818 5819 5820 5822 5823 5824 5825 5827 5828 5829 5830 5830 5831 5831 5831 5832 5832 5832 5833 5833 5833 5833 5833 5834 5834 5834 5833 5832 5832
5786 5787 5788 5789 5790 5790 5792 5793 5793 5794 5796 5798 5799 5800 5801 5802 5803 5804 5805 5806 5807 5808 5809 5810 5810 5811 5812 5812 5813 5814 5815 5815 5816 5816 5817 5818 5819 5820 5821 5822 5823 5824 5825 5826 5827 5827 5828 5828 5829 5829 5830 5830 5830 5831 5831 5831 5830 5830 5830 5830 5829 5829 5829
5784 5785 5786 5787 5788 5789 5791 5792 5793 5794 5796 5798 5799 5800 5801 5802 5803 5803 5804 5805 5806 5807 5808 5809 5810 5810 5811 5812 5812 5813 5814 5815 5815 5816 5816 5817 5818 5819 5820 5820 5821 5822 5822 5823 5824 5825 5825 5826 5827 5827 5828 5828 5828 5828 5828 5828 5828 5828 5827 5827 5827 5826 5826
5783 5783 5784 5786 5787 5788 5789 5791 5793 5794 5796 5797 5799 5800 5801 5802 5803 5803 5804 5805 5806 5806 5807 5808 5809 5810 5811 5811 5812 5812 5813 5814 5814 5815 5816 5816 5817 5818 5819 5819 5820 5820 5820 5820 5821 5821 5822 5823 5824 5824 5825 5825 5825 5825 5825 5825 5825 5824 5824 5824 5823 5823 5823
5782 5782 5783 5784 5786 5787 5788 5790 5791 5793 5795 5797 5798 5800 5801 5802 5802 5803 5804 5805 5805 5806 5807 5808 5809 5809 5810 5811 5811 5812 5813 5813 5814 5814 5815 5816 5816 5817 5817 5818 5818 5818 5818 5818 5818 5819 5819 5820 5820 5821 5822 5822 5822 5822 5822 5822 5822 5821 5821 5820 5820 5820 5819
5780 5781 5782 5783 5784 5786 5787 5788 5790 5792 5794 5796 5797 5799 5800 5801 5802 5803 5803 5804 5805 5806 5806 5807 5808 5809 5809 5810 5811 5811 5812 5812 5813 5814 5814 5815 5815 5815 5815 5815 5816 5816 5816 5816 5816 5817 5817 5817 5818 5818 5819 5819 5820 5820 5819 5819 5819 5818 5818 5817 5817 5817 5816